Weather History for Fairmont, MN

Change the Weather History Date:

Tuesday, February 5, 2013

  Actual Average Record
Temperature  
Mean Temperature 28 °F -  
Max Temperature 39 °F 22 °F 54 °F (1964)
Min Temperature 15 °F 5 °F -23 °F (1979)
Degree Days  
Heating Degree Days 37    
Moisture  
Dew Point 19 °F    
Average Humidity 66    
Maximum Humidity 75    
Minimum Humidity 55    
Precipitation  
Precipitation 0.00 in - - ()
Sea Level Pressure  
Sea Level Pressure 29.89 in    
Wind  
Wind Speed 13 mph (WNW)    
Max Wind Speed 23 mph    
Max Gust Speed 31 mph    
Visibility 10 miles    
Events      
Averages and records for this station are not official NWS values.
T = Trace of Precipitation, MM = Missing Value Source: NWS Daily Summary

Daily Weather History Graph

Daily Weather History Graph

Search for Another Location

Airport:

Trip Planner

Search our weather history database for the weather conditions in past years. The results will help you decide how hot, cold, wet, or windy it might be!

Date:

Astronomy

Feb. 05, 2013 Rise Set
Actual Time 7:29 AM CST 5:34 PM CST
Civil Twilight 6:59 AM CST 6:04 PM CST
Nautical Twilight 6:25 AM CST 6:38 PM CST
Astronomical Twilight 5:51 AM CST 7:12 PM CST
Moon 3:15 AM CST (2/5) 12:49 PM CST (2/5)
Length of Visible Light 11h 05m
Length of Day
10h 05m
Waning Crescent, 26% of the Moon is Illuminated
Feb 5
Waning Crescent
Feb 10
New
Feb 17
First Quarter
Feb 25
Full
Mar 4
Last Quarter

Hourly Weather History & Observations

Time (CST) Temp. Windchill Dew Point Humidity Pressure Visibility Wind Dir Wind Speed Gust Speed Precip Events Conditions
12:15 AM 26.6 °F 14.7 °F 17.6 °F 69% 29.78 in 10.0 mi South 15.0 mph - N/A   Overcast
12:35 AM 26.6 °F 13.8 °F 17.6 °F 69% 29.75 in 10.0 mi SSW 17.3 mph - N/A   Overcast
12:55 AM 26.6 °F 13.1 °F 17.6 °F 69% 29.74 in 10.0 mi SSW 19.6 mph - N/A   Overcast
1:15 AM 28.4 °F 16.2 °F 17.6 °F 64% 29.73 in 10.0 mi SSW 17.3 mph 21.9 mph N/A   Mostly Cloudy
1:35 AM 28.4 °F 16.6 °F 17.6 °F 64% 29.74 in 10.0 mi SSW 16.1 mph 20.7 mph N/A   Mostly Cloudy
1:55 AM 28.4 °F 17.0 °F 19.4 °F 69% 29.73 in 10.0 mi SSW 15.0 mph - N/A   Scattered Clouds
2:15 AM 28.4 °F 17.0 °F 19.4 °F 69% 29.74 in 10.0 mi SW 15.0 mph - N/A   Clear
2:35 AM 28.4 °F 17.5 °F 19.4 °F 69% 29.74 in 10.0 mi SW 13.8 mph - N/A   Scattered Clouds
2:55 AM 28.4 °F 17.0 °F 19.4 °F 69% 29.72 in 10.0 mi SW 15.0 mph - N/A   Mostly Cloudy
3:15 AM 28.4 °F 16.6 °F 19.4 °F 69% 29.71 in 10.0 mi SW 16.1 mph 21.9 mph N/A   Partly Cloudy
3:35 AM 28.4 °F 17.5 °F 19.4 °F 69% 29.70 in 8.0 mi SSW 13.8 mph - N/A   Partly Cloudy
3:55 AM 28.4 °F 19.1 °F 19.4 °F 69% 29.70 in 8.0 mi SW 10.4 mph - N/A   Clear
4:15 AM 28.4 °F 20.4 °F 19.4 °F 69% 29.71 in 8.0 mi SSW 8.1 mph - N/A   Clear
4:35 AM 26.6 °F 18.2 °F 19.4 °F 74% 29.70 in 8.0 mi SSW 8.1 mph - N/A   Clear
4:55 AM 26.6 °F 20.0 °F 19.4 °F 74% 29.70 in 8.0 mi SSW 5.8 mph - N/A   Clear
5:15 AM 26.6 °F 20.0 °F 17.6 °F 69% 29.71 in 8.0 mi SSW 5.8 mph - N/A   Clear
5:35 AM 28.4 °F 20.4 °F 19.4 °F 69% 29.72 in 10.0 mi WSW 8.1 mph - N/A   Mostly Cloudy
5:55 AM 28.4 °F 19.1 °F 19.4 °F 69% 29.72 in 10.0 mi West 10.4 mph - N/A   Scattered Clouds
6:15 AM 30.2 °F 20.2 °F 21.2 °F 69% 29.72 in 10.0 mi West 12.7 mph - N/A   Mostly Cloudy
6:35 AM 30.2 °F 20.2 °F 21.2 °F 69% 29.71 in 7.0 mi West 12.7 mph - N/A   Overcast
6:55 AM 30.2 °F 21.9 °F 23.0 °F 75% 29.71 in 7.0 mi West 9.2 mph - N/A   Overcast
7:15 AM 32.0 °F 23.6 °F 23.0 °F 69% 29.72 in 10.0 mi West 10.4 mph - N/A   Overcast
7:35 AM 33.8 °F 24.8 °F 24.8 °F 70% 29.74 in 10.0 mi West 12.7 mph - N/A   Overcast
7:55 AM 35.6 °F 26.2 °F 26.6 °F 70% 29.75 in 10.0 mi West 15.0 mph - N/A   Overcast
8:15 AM 35.6 °F 27.5 °F 24.8 °F 65% 29.76 in 9.0 mi WNW 11.5 mph - N/A   Overcast
8:35 AM 35.6 °F 27.1 °F 24.8 °F 65% 29.77 in 10.0 mi WNW 12.7 mph - N/A   Overcast
8:55 AM 35.6 °F 26.6 °F 26.6 °F 70% 29.79 in 10.0 mi WNW 13.8 mph - N/A   Overcast
9:15 AM 37.4 °F 29.3 °F 26.6 °F 65% 29.80 in 10.0 mi NW 12.7 mph - N/A   Overcast
9:35 AM 37.4 °F 29.3 °F 26.6 °F 65% 29.81 in 10.0 mi NW 12.7 mph - N/A   Overcast
9:55 AM 37.4 °F 28.9 °F 26.6 °F 65% 29.83 in 10.0 mi NW 13.8 mph - N/A   Overcast
10:15 AM 37.4 °F 29.8 °F 26.6 °F 65% 29.84 in 10.0 mi NW 11.5 mph - N/A   Overcast
10:35 AM 37.4 °F 29.8 °F 26.6 °F 65% 29.85 in 10.0 mi NW 11.5 mph - N/A   Overcast
10:55 AM 37.4 °F 28.9 °F 26.6 °F 65% 29.86 in 10.0 mi NW 13.8 mph - N/A   Overcast
11:15 AM 39.2 °F 31.2 °F 28.4 °F 65% 29.87 in 10.0 mi NW 13.8 mph - N/A   Overcast
11:35 AM 39.2 °F 30.5 °F 28.4 °F 65% 29.88 in 10.0 mi NW 16.1 mph 20.7 mph N/A   Overcast
11:55 AM 39.2 °F 30.8 °F 28.4 °F 65% 29.89 in 10.0 mi NW 15.0 mph - N/A   Overcast
12:15 PM 39.2 °F 29.8 °F 26.6 °F 61% 29.89 in 10.0 mi NW 18.4 mph 26.5 mph N/A   Overcast
12:35 PM 37.4 °F 28.5 °F 26.6 °F 65% 29.90 in 10.0 mi NW 15.0 mph 23.0 mph N/A   Overcast
12:55 PM 37.4 °F 27.2 °F 26.6 °F 65% 29.91 in 10.0 mi NW 19.6 mph 24.2 mph N/A   Overcast
1:15 PM 37.4 °F 27.8 °F 26.6 °F 65% 29.92 in 8.0 mi NW 17.3 mph 23.0 mph N/A   Overcast
1:35 PM 35.6 °F 24.5 °F 26.6 °F 70% 29.92 in 9.0 mi NW 20.7 mph 26.5 mph N/A   Overcast
1:55 PM 35.6 °F 25.9 °F 24.8 °F 65% 29.93 in 10.0 mi NW 16.1 mph - N/A   Overcast
2:15 PM 33.8 °F 21.6 °F 21.2 °F 60% 29.94 in 10.0 mi NW 23.0 mph 31.1 mph N/A   Overcast
2:35 PM 33.8 °F 24.3 °F 21.2 °F 60% 29.95 in 10.0 mi NW 13.8 mph - N/A   Overcast
2:55 PM 32.0 °F 19.8 °F 17.6 °F 55% 29.96 in 10.0 mi NW 20.7 mph - N/A   Overcast
3:15 PM 30.2 °F 18.9 °F 17.6 °F 60% 29.97 in 10.0 mi NW 16.1 mph - N/A   Overcast
3:35 PM 30.2 °F 18.1 °F 15.8 °F 55% 29.98 in 10.0 mi NW 18.4 mph - N/A   Overcast
3:55 PM 30.2 °F 19.8 °F 17.6 °F 60% 29.99 in 10.0 mi NW 13.8 mph 19.6 mph N/A   Overcast
4:15 PM 28.4 °F 17.5 °F 15.8 °F 59% 29.99 in 10.0 mi NW 13.8 mph - N/A   Overcast
4:35 PM 28.4 °F 17.5 °F 15.8 °F 59% 30.00 in 10.0 mi NNW 13.8 mph - N/A   Overcast
4:55 PM 28.4 °F 16.2 °F 15.8 °F 59% 30.01 in 10.0 mi NW 17.3 mph - N/A   Overcast
5:15 PM 26.6 °F 15.7 °F 14.0 °F 59% 30.01 in 10.0 mi NW 12.7 mph - N/A   Overcast
5:35 PM 26.6 °F 14.7 °F 12.2 °F 55% 30.02 in 10.0 mi NW 15.0 mph - N/A   Overcast
5:55 PM 24.8 °F 14.0 °F 12.2 °F 59% 30.03 in 10.0 mi NNW 11.5 mph - N/A   Scattered Clouds
6:15 PM 24.8 °F 14.6 °F 12.2 °F 59% 30.03 in 10.0 mi NNW 10.4 mph - N/A   Clear
6:35 PM 23.0 °F 13.1 °F 12.2 °F 63% 30.04 in 10.0 mi NNW 9.2 mph - N/A   Clear
6:55 PM 23.0 °F 13.9 °F 12.2 °F 63% 30.04 in 10.0 mi NNW 8.1 mph - N/A   Clear
7:15 PM 21.2 °F 11.7 °F 12.2 °F 68% 30.05 in 10.0 mi North 8.1 mph - N/A   Clear
7:35 PM 21.2 °F 11.7 °F 12.2 °F 68% 30.05 in 10.0 mi North 8.1 mph - N/A   Clear
7:55 PM 19.4 °F 11.5 °F 10.4 °F 68% 30.05 in 10.0 mi NNW 5.8 mph - N/A   Clear
8:15 PM 19.4 °F 12.8 °F 10.4 °F 68% 30.07 in 10.0 mi NW 4.6 mph - N/A   Clear
8:35 PM 19.4 °F 11.5 °F 10.4 °F 68% 30.08 in 10.0 mi NW 5.8 mph - N/A   Clear
8:55 PM 19.4 °F 12.8 °F 10.4 °F 68% 30.07 in 10.0 mi NNW 4.6 mph - N/A   Clear
9:15 PM 17.6 °F 10.7 °F 10.4 °F 73% 30.08 in 10.0 mi North 4.6 mph - N/A   Clear
9:35 PM 17.6 °F 9.3 °F 10.4 °F 73% 30.08 in 10.0 mi NNW 5.8 mph - N/A   Clear
9:55 PM 17.6 °F - 8.6 °F 68% 30.08 in 10.0 mi Calm Calm - N/A   Clear
10:15 PM 17.6 °F 12.3 °F 8.6 °F 68% 30.10 in 10.0 mi NNW 3.5 mph - N/A   Clear
10:35 PM 17.6 °F - 8.6 °F 68% 30.09 in 10.0 mi Calm Calm - N/A   Clear
10:55 PM 17.6 °F - 8.6 °F 68% 30.09 in 10.0 mi Calm Calm - N/A   Clear
11:15 PM 17.6 °F - 8.6 °F 68% 30.09 in 10.0 mi Calm Calm - N/A   Clear
11:35 PM 17.6 °F - 6.8 °F 63% 30.08 in 10.0 mi Calm Calm - N/A   Clear
11:55 PM 15.8 °F - 8.6 °F 73% 30.08 in 10.0 mi Calm Calm - N/A   Clear